Louisville Bowman, KY

9:50 PM EST on November 22, 2017 (GMT -0500)
Bowman

Weather History for KLOU - May, 2014

Change the Weather History Date:

Thursday, May 15, 2014

  Actual Average Record
Temperature  
Mean Temperature 58 °F 66 °F  
Max Temperature 67 °F 76 °F 90 °F (1991)
Min Temperature 49 °F 56 °F 40 °F (1973)
Degree Days  
Heating Degree Days 7 2  
Month to date heating degree days 30 51  
Since 1 July heating degree days 4671 4242  
Cooling Degree Days 0 3  
Month to date cooling degree days 90 34  
Year to date cooling degree days 124 68  
Growing Degree Days 8 (Base 50)    
Moisture  
Dew Point 50 °F    
Average Humidity 68    
Maximum Humidity 87    
Minimum Humidity 49    
Precipitation  
Precipitation 0.04 in 0.17 in 1.98 in (1983)
Month to date precipitation 3.23 2.66  
Year to date precipitation 18.64 17.46  
Sea Level Pressure  
Sea Level Pressure 29.93 in    
Wind  
Wind Speed 10 mph (WSW)    
Max Wind Speed 18 mph    
Max Gust Speed 25 mph    
Visibility 9 miles    
Events Rain    
T = Trace of Precipitation, MM = Missing Value Source: NWS Daily Summary

Daily Weather History Graph

Daily Weather History Graph

Search for Another Location

Airport or City:

Trip Planner

Search our weather history database for the weather conditions in past years. The results will help you decide how hot, cold, wet, or windy it might be!

Date:

Astronomy

May. 15, 2014 Rise Set
Actual Time 6:31 AM EDT 8:46 PM EDT
Civil Twilight 6:02 AM EDT 9:16 PM EDT
Nautical Twilight 5:25 AM EDT 9:53 PM EDT
Astronomical Twilight 4:45 AM EDT 10:32 PM EDT
Moon 9:54 PM EDT (5/15) 7:17 AM EDT (5/15)
Length of Visible Light 15h 14m
Length of Day
14h 15m
Full, 99% of the Moon is Illuminated
May 15
Full
May 21
Last Quarter
May 28
New
Jun 5
First Quarter
Jun 13
Full

Hourly Weather History & Observations

Time (EDT) Temp. Dew Point Humidity Pressure Visibility Wind Dir Wind Speed Gust Speed Precip Events Conditions
12:14 AM 66.9 °F 63.0 °F 87% 29.85 in 5.0 mi SSE 9.2 mph - 0.03 in Rain Rain
12:53 AM 66.9 °F 62.1 °F 84% 29.82 in 8.0 mi SSE 9.2 mph - 0.07 in Rain Light Rain
1:00 AM 66.9 °F 62.1 °F 84% 29.83 in 10.0 mi SSE 11.5 mph 18.4 mph 0.01 in   Overcast
1:26 AM 66.9 °F 62.1 °F 84% 29.82 in 10.0 mi South 9.2 mph - 0.01 in   Overcast
1:46 AM 64.9 °F 61.0 °F 87% 29.82 in 2.5 mi WSW 15.0 mph 21.9 mph 0.03 in Rain Rain
1:53 AM 64.0 °F 60.1 °F 87% 29.82 in 2.5 mi WSW 11.5 mph 21.9 mph 0.04 in Rain Light Rain
1:55 AM 64.0 °F 60.1 °F 87% 29.82 in 3.0 mi SW 9.2 mph - 0.00 in Rain Light Rain
2:08 AM 63.0 °F 60.1 °F 90% 29.82 in 8.0 mi WSW 9.2 mph - 0.00 in Rain Light Rain
2:15 AM 63.0 °F 59.0 °F 87% 29.82 in 10.0 mi WSW 11.5 mph - 0.00 in Rain Light Rain
2:27 AM 62.1 °F 57.0 °F 84% 29.82 in 10.0 mi WSW 11.5 mph - 0.00 in   Overcast
2:44 AM 61.0 °F 55.9 °F 83% 29.82 in 10.0 mi SW 10.4 mph 19.6 mph 0.00 in Rain Light Rain
2:51 AM 60.8 °F 55.4 °F 82% 29.82 in 10.0 mi WSW 12.7 mph - 0.01 in Rain Light Rain
2:53 AM 60.1 °F 55.9 °F 86% 29.81 in 10.0 mi SW 11.5 mph - 0.01 in Rain Light Rain
3:07 AM 60.1 °F 55.9 °F 86% 29.82 in 10.0 mi WSW 12.7 mph 18.4 mph 0.00 in Rain Light Rain
3:49 AM 59.0 °F 53.6 °F 82% 29.83 in 10.0 mi West 9.2 mph - 0.00 in Rain Light Rain
3:53 AM 57.9 °F 54.0 °F 87% 29.83 in 10.0 mi WSW 11.5 mph 18.4 mph 0.00 in   Overcast
4:04 AM 57.9 °F 53.1 °F 84% 29.84 in 10.0 mi WSW 13.8 mph 19.6 mph N/A   Overcast
4:38 AM 55.9 °F 52.0 °F 87% 29.86 in 10.0 mi WSW 15.0 mph 21.9 mph N/A   Overcast
4:53 AM 55.9 °F 51.1 °F 84% 29.85 in 10.0 mi WSW 9.2 mph - N/A   Overcast
5:24 AM 55.0 °F 48.9 °F 80% 29.87 in 10.0 mi WSW 12.7 mph 23.0 mph N/A   Overcast
5:32 AM 54.0 °F 48.9 °F 83% 29.88 in 10.0 mi WSW 12.7 mph - N/A   Overcast
5:53 AM 54.0 °F 48.9 °F 83% 29.88 in 10.0 mi West 15.0 mph 20.7 mph N/A   Overcast
6:39 AM 53.1 °F 46.9 °F 80% 29.90 in 10.0 mi WSW 9.2 mph - N/A   Overcast
6:53 AM 53.1 °F 46.9 °F 80% 29.91 in 10.0 mi West 10.4 mph - N/A   Overcast
7:53 AM 53.1 °F 46.0 °F 77% 29.94 in 10.0 mi WSW 12.7 mph - N/A   Overcast
8:53 AM 53.1 °F 44.1 °F 71% 29.95 in 10.0 mi West 12.7 mph 19.6 mph N/A   Overcast
9:00 AM 53.1 °F 44.1 °F 71% 29.95 in 10.0 mi West 11.5 mph - N/A   Overcast
9:53 AM 53.1 °F 44.1 °F 71% 29.97 in 10.0 mi West 8.1 mph - N/A   Overcast
10:53 AM 53.1 °F 44.1 °F 71% 29.99 in 10.0 mi West 16.1 mph 25.3 mph N/A   Overcast
11:53 AM 54.0 °F 44.1 °F 69% 30.01 in 10.0 mi WNW 13.8 mph 24.2 mph N/A   Overcast
12:53 PM 55.0 °F 44.1 °F 67% 30.02 in 10.0 mi West 9.2 mph - N/A   Overcast
1:53 PM 57.0 °F 44.1 °F 62% 30.03 in 10.0 mi West 13.8 mph - N/A   Overcast
2:01 PM 55.9 °F 44.1 °F 64% 30.04 in 10.0 mi West 13.8 mph - N/A   Overcast
2:08 PM 55.9 °F 44.1 °F 64% 30.04 in 10.0 mi WNW 13.8 mph - N/A   Overcast
3:04 PM 59.0 °F 44.1 °F 58% 30.04 in 10.0 mi West 18.4 mph 24.2 mph N/A   Overcast
3:20 PM 57.0 °F 43.0 °F 59% 30.04 in 10.0 mi WNW 10.4 mph - N/A   Overcast
3:53 PM 59.0 °F 44.1 °F 58% 30.04 in 10.0 mi West 18.4 mph 23.0 mph N/A   Overcast
4:53 PM 59.0 °F 42.1 °F 53% 30.04 in 10.0 mi West 13.8 mph - N/A   Overcast
5:53 PM 60.1 °F 41.0 °F 49% 30.04 in 10.0 mi WNW 15.0 mph - N/A   Mostly Cloudy
6:53 PM 60.1 °F 41.0 °F 49% 30.03 in 10.0 mi WNW 12.7 mph - N/A   Partly Cloudy
7:53 PM 59.0 °F 41.0 °F 51% 30.04 in 10.0 mi NW 8.1 mph - N/A   Clear
8:53 PM 57.0 °F 42.1 °F 57% 30.06 in 10.0 mi Calm Calm - N/A   Partly Cloudy
9:53 PM 54.0 °F 44.1 °F 69% 30.08 in 10.0 mi Calm Calm - N/A   Clear
10:53 PM 51.1 °F 44.1 °F 77% 30.09 in 10.0 mi Calm Calm - N/A   Clear
11:53 PM 50.0 °F 44.1 °F 80% 30.08 in 10.0 mi Calm Calm - N/A   Clear